N0ZMJ-3 Weather Reports


Display with metric or nautical units.
time (UTC)temp
F
wind
direction
speed
MPH
gust
MPH
rain 1hr
in
rain 24hr
in
rain mn
in
humidity
%
barometer
mb
20260906071102 72 98 2.0 7.0 0.00 0.36 0.00 100 1013.3
20260906070429 72 112 2.0 5.0 0.00 0.36 0.00 100 1013.4
20260906070402 72 112 2.0 5.0 0.00 0.36 0.00 100 1013.4
20260906065701 72 103 1.0 5.0 0.00 0.36 0.00 100 1013.3
20260906065429 72 104 3.0 5.0 0.00 0.36 0.00 100 1013.4
20260906065000 72 105 3.0 5.0 0.00 0.36 0.00 100 1013.4
20260906064429 72 92 2.0 4.0 0.00 0.36 0.00 100 1013.6
20260906064300 72 92 2.0 4.0 0.00 0.36 0.00 100 1013.6
20260906063600 72 107 2.0 4.0 0.00 0.36 0.00 100 1013.6
20260906063428 72 107 2.0 4.0 0.00 0.36 0.00 100 1013.5
20260906062901 72 107 2.0 4.0 0.00 0.36 0.00 100 1013.6
20260906062428 72 107 1.0 4.0 0.00 0.36 0.00 100 1013.5
20260906062203 72 107 1.0 4.0 0.00 0.36 0.00 100 1013.5
20260906061500 72 103 2.0 5.0 0.00 0.36 0.00 100 1013.4
20260906061428 72 103 2.0 5.0 0.00 0.36 0.00 100 1013.4
20260906060800 72 104 2.0 4.0 0.00 0.36 0.00 100 1013.5
20260906060428 72 104 2.0 3.0 0.00 0.36 0.00 100 1013.6
20260906060100 72 104 2.0 3.0 0.00 0.36 0.00 100 1013.6
20260906055428 72 104 1.0 3.0 0.00 0.36 0.00 100 1013.5
20260906055400 72 104 1.0 3.0 0.00 0.36 0.00 100 1013.5
20260906054700 72 104 0.0 2.0 0.00 0.36 0.00 100 1013.6
20260906054428 72 104 0.0 1.0 0.00 0.36 0.00 100 1013.7
20260906054001 72 104 0.0 1.0 0.00 0.36 0.00 99 1013.9
20260906053427 72 104 0.0 1.0 0.00 0.36 0.00 99 1013.9
20260906053259 72 104 0.0 1.0 0.00 0.36 0.00 99 1013.9
20260906052601 72 104 0.0 2.0 0.00 0.36 0.00 99 1013.7
20260906052427 72 104 0.0 3.0 0.00 0.36 0.00 99 1014.0
20260906051900 72 104 1.0 3.0 0.00 0.36 0.00 99 1013.9
20260906051427 72 104 2.0 3.0 0.00 0.36 0.00 98 1014.0
20260906051159 72 104 2.0 3.0 0.00 0.36 0.00 98 1014.0
20260906050459 72 104 0.0 3.0 0.00 0.36 0.36 97 1014.1
20260906050427 72 104 0.0 3.0 0.00 0.36 0.36 97 1014.1
20260906045759 73 104 1.0 3.0 0.00 0.36 0.36 97 1014.0
20260906045427 73 104 1.0 3.0 0.00 0.36 0.36 96 1013.9
20260906045100 73 104 1.0 3.0 0.00 0.36 0.36 96 1013.9
20260906044429 73 104 0.0 1.0 0.00 0.36 0.36 95 1014.1
20260906044402 73 104 0.0 1.0 0.00 0.36 0.36 95 1014.1
20260906043701 73 104 0.0 2.0 0.00 0.36 0.36 95 1014.1
20260906043429 74 104 1.0 3.0 0.00 0.36 0.36 95 1013.9
20260906043002 74 104 1.0 4.0 0.00 0.36 0.36 94 1014.0
20260906042429 74 104 1.0 4.0 0.00 0.36 0.36 94 1014.0
20260906042308 74 104 1.0 4.0 0.00 0.36 0.36 94 1014.0
20260906041600 74 182 1.0 4.0 0.00 0.36 0.36 94 1014.0
20260906041428 74 158 1.0 4.0 0.00 0.36 0.36 94 1013.8
20260906040904 74 142 1.0 2.0 0.00 0.36 0.36 93 1014.0
20260906040428 74 142 0.0 2.0 0.00 0.36 0.36 93 1013.9
20260906040202 74 142 0.0 2.0 0.00 0.36 0.36 93 1013.9
20260906035500 75 168 1.0 4.0 0.00 0.36 0.36 92 1013.9
20260906035428 75 168 1.0 4.0 0.00 0.36 0.36 92 1013.9
20260906034759 75 168 1.0 6.0 0.00 0.36 0.36 92 1013.9
20260906034428 75 158 1.0 6.0 0.00 0.36 0.36 92 1014.0
20260906034059 75 158 1.0 6.0 0.00 0.36 0.36 92 1014.0
20260906033428 75 171 1.0 7.0 0.00 0.36 0.36 91 1013.8
20260906033401 75 171 1.0 7.0 0.00 0.36 0.36 91 1013.8
20260906032659 75 194 2.0 6.0 0.00 0.36 0.36 90 1013.6
20260906032428 75 165 1.0 3.0 0.00 0.36 0.36 90 1013.6
20260906031959 75 165 1.0 6.0 0.00 0.36 0.36 89 1013.6
20260906031428 75 165 1.0 7.0 0.00 0.36 0.36 89 1013.6
20260906031300 75 165 1.0 7.0 0.00 0.36 0.36 89 1013.6
20260906030600 75 192 1.0 7.0 0.00 0.36 0.36 88 1013.6
20260906030427 76 137 2.0 3.0 0.00 0.36 0.36 88 1013.4
20260906025859 76 185 1.0 3.0 0.00 0.36 0.36 87 1013.7
20260906025427 76 148 1.0 3.0 0.00 0.36 0.36 86 1013.6
20260906025158 76 148 1.0 3.0 0.00 0.36 0.36 86 1013.6
20260906024501 77 110 1.0 3.0 0.00 0.36 0.36 86 1013.7
20260906024429 77 110 1.0 3.0 0.00 0.36 0.36 86 1013.7
20260906023801 77 115 1.0 4.0 0.00 0.36 0.36 85 1013.7
20260906023429 77 106 0.0 5.0 0.00 0.36 0.36 85 1013.6
20260906023100 77 106 0.0 5.0 0.00 0.36 0.36 85 1013.6
20260906022429 77 109 1.0 4.0 0.00 0.36 0.36 83 1013.4
20260906022400 77 109 1.0 4.0 0.00 0.36 0.36 83 1013.4
20260906021700 77 106 1.0 5.0 0.00 0.36 0.36 83 1013.3
20260906021429 78 90 2.0 5.0 0.00 0.36 0.36 82 1013.2
20260906021002 78 143 1.0 3.0 0.00 0.36 0.36 82 1013.3
20260906020429 78 109 1.0 3.0 0.00 0.36 0.36 81 1013.4
20260906020300 78 109 1.0 3.0 0.00 0.36 0.36 81 1013.4
20260906015601 78 109 0.0 2.0 0.00 0.36 0.36 81 1013.2
20260906015428 79 109 0.0 4.0 0.00 0.36 0.36 80 1012.9
20260906014901 79 109 1.0 4.0 0.00 0.36 0.36 80 1013.0
20260906014428 79 141 1.0 4.0 0.00 0.36 0.36 79 1013.1
20260906014200 79 141 1.0 4.0 0.00 0.36 0.36 79 1013.1
20260906013501 80 169 1.0 5.0 0.00 0.36 0.36 78 1013.0
20260906013428 80 169 1.0 5.0 0.00 0.36 0.36 78 1013.0
20260906012759 80 108 1.0 5.0 0.00 0.36 0.36 77 1012.9
20260906012428 80 176 1.0 5.0 0.00 0.36 0.36 76 1012.9
20260906012059 80 176 1.0 5.0 0.00 0.36 0.36 76 1012.9
20260906011428 81 100 1.0 3.0 0.00 0.36 0.36 75 1012.9
20260906011400 81 100 1.0 3.0 0.00 0.36 0.36 75 1012.9
20260906010659 81 139 1.0 3.0 0.00 0.36 0.36 74 1013.0
20260906010428 81 141 1.0 5.0 0.00 0.36 0.36 73 1013.0
20260906010000 82 118 1.0 5.0 0.00 0.36 0.36 73 1013.0
20260906005427 82 160 1.0 6.0 0.00 0.36 0.36 72 1012.9
20260906005300 82 160 1.0 6.0 0.00 0.36 0.36 72 1012.9
20260906004600 83 103 2.0 6.0 0.00 0.36 0.36 71 1012.9
20260906004427 83 161 1.0 4.0 0.00 0.36 0.36 70 1012.9
20260906003902 83 135 2.0 6.0 0.00 0.36 0.36 69 1013.0
20260906003428 84 80 1.0 6.0 0.00 0.36 0.36 69 1012.9
20260906003201 84 80 1.0 6.0 0.00 0.36 0.36 69 1012.9
20260906002500 85 150 1.0 6.0 0.00 0.36 0.36 66 1012.6
20260906002428 85 150 1.0 6.0 0.00 0.36 0.36 66 1012.6
20260906001759 85 137 2.0 5.0 0.00 0.36 0.36 65 1012.6
20260906001428 85 168 1.0 4.0 0.00 0.36 0.36 64 1012.5
20260906001059 85 168 1.0 4.0 0.00 0.36 0.36 64 1012.5
20260906000428 86 161 1.0 6.0 0.00 0.36 0.36 63 1012.3
20260906000400 86 161 1.0 6.0 0.00 0.36 0.36 63 1012.3
20260905235659 86 151 1.0 4.0 0.00 0.36 0.36 63 1012.0
20260905235428 86 145 2.0 7.0 0.00 0.36 0.36 63 1012.0
20260905234959 86 184 2.0 7.0 0.00 0.36 0.36 62 1012.1
20260905234427 87 180 1.0 8.0 0.00 0.36 0.36 62 1012.0
20260905234259 87 180 1.0 8.0 0.00 0.36 0.36 62 1012.0
20260905233600 87 183 3.0 8.0 0.00 0.36 0.36 61 1012.1
20260905233427 87 203 1.0 8.0 0.00 0.36 0.36 61 1012.1
20260905232858 87 173 2.0 10.0 0.00 0.36 0.36 62 1012.1
20260905232427 87 173 2.0 11.0 0.00 0.36 0.36 62 1012.1
20260905232200 87 173 2.0 11.0 0.00 0.36 0.36 62 1012.1
20260905231501 87 158 2.0 8.0 0.00 0.36 0.36 63 1012.1
20260905231429 87 158 2.0 8.0 0.00 0.36 0.36 63 1012.1
20260905230801 87 156 3.0 6.0 0.00 0.36 0.36 62 1012.1
20260905230429 87 191 2.0 5.0 0.00 0.36 0.36 62 1012.1
20260905230100 87 191 2.0 5.0 0.00 0.36 0.36 62 1012.1
20260905225429 88 167 4.0 8.0 0.00 0.36 0.36 61 1012.1
20260905225401 88 167 4.0 8.0 0.00 0.36 0.36 61 1012.1
20260905224700 88 139 2.0 6.0 0.00 0.36 0.36 61 1012.1
20260905224429 88 152 1.0 7.0 0.00 0.36 0.36 60 1012.1
20260905224004 88 167 3.0 8.0 0.00 0.36 0.36 59 1012.1
20260905223428 88 184 1.0 8.0 0.00 0.36 0.36 60 1012.2
20260905223300 88 184 1.0 8.0 0.00 0.36 0.36 60 1012.2
20260905222604 88 205 2.0 7.0 0.00 0.36 0.36 59 1012.2
20260905222428 88 164 1.0 6.0 0.00 0.36 0.36 60 1012.2
20260905221859 88 190 3.0 8.0 0.00 0.36 0.36 60 1012.1
20260905221428 88 162 2.0 8.0 0.00 0.36 0.36 60 1012.2
20260905221200 88 162 2.0 8.0 0.00 0.36 0.36 60 1012.2
20260905220501 88 160 2.0 5.0 0.00 0.36 0.36 60 1012.1
20260905220428 88 160 2.0 5.0 0.00 0.36 0.36 60 1012.1
20260905215759 88 140 2.0 6.0 0.00 0.36 0.36 61 1012.0
20260905215428 88 116 3.0 7.0 0.00 0.36 0.36 60 1012.0
20260905215100 88 116 3.0 7.0 0.00 0.36 0.36 60 1012.0
20260905214428 88 135 2.0 7.0 0.00 0.36 0.36 61 1012.0
20260905214401 88 135 2.0 7.0 0.00 0.36 0.36 61 1012.0
20260905213701 88 144 2.0 7.0 0.00 0.36 0.36 60 1012.0
20260905213428 88 168 3.0 7.0 0.00 0.36 0.36 59 1011.9
20260905213001 88 148 2.0 7.0 0.00 0.36 0.36 59 1012.0
20260905212428 88 175 2.0 7.0 0.00 0.36 0.36 59 1011.9
20260905212300 88 175 2.0 7.0 0.00 0.36 0.36 59 1011.9
20260905211600 88 118 3.0 7.0 0.00 0.36 0.36 59 1011.9
20260905211427 87 110 2.0 7.0 0.00 0.36 0.36 60 1011.9
20260905210901 87 101 3.0 8.0 0.00 0.36 0.36 59 1012.0
20260905210427 87 119 2.0 8.0 0.00 0.36 0.36 59 1012.0
20260905210201 87 119 2.0 8.0 0.00 0.36 0.36 59 1012.0
20260905205458 88 117 3.0 7.0 0.00 0.36 0.36 58 1011.9
20260905205427 88 117 3.0 7.0 0.00 0.36 0.36 58 1011.9
20260905204803 88 159 4.0 8.0 0.00 0.36 0.36 58 1011.9
20260905204429 87 151 3.0 9.0 0.00 0.36 0.36 57 1011.9
20260905204100 87 151 3.0 9.0 0.00 0.36 0.36 57 1011.9
20260905203429 88 117 3.0 8.0 0.00 0.36 0.36 58 1011.8
20260905203401 88 117 3.0 8.0 0.00 0.36 0.36 58 1011.8
20260905202706 88 110 3.0 8.0 0.00 0.36 0.36 58 1011.7
20260905202429 88 122 3.0 8.0 0.00 0.36 0.36 58 1011.8
20260905202003 88 171 3.0 11.0 0.00 0.36 0.36 59 1011.8
20260905201428 88 96 5.0 11.0 0.00 0.36 0.36 59 1011.8
20260905201300 88 96 5.0 11.0 0.00 0.36 0.36 59 1011.8
20260905200600 87 111 3.0 10.0 0.00 0.36 0.36 60 1011.8
20260905200428 87 101 4.0 10.0 0.00 0.36 0.36 60 1011.6
20260905195900 87 98 5.0 9.0 0.00 0.36 0.36 59 1011.7
20260905195428 87 132 2.0 8.0 0.00 0.36 0.36 61 1011.8
20260905195201 87 132 2.0 8.0 0.00 0.36 0.36 61 1011.8
20260905194500 86 98 2.0 12.0 0.00 0.36 0.36 63 1011.9
20260905194428 86 98 2.0 12.0 0.00 0.36 0.36 63 1011.9
20260905193801 86 85 7.0 10.0 0.00 0.36 0.36 62 1012.0
20260905193428 85 96 5.0 9.0 0.00 0.36 0.36 64 1012.0
20260905193105 85 96 5.0 9.0 0.00 0.36 0.36 64 1012.0
20260905192428 85 93 6.0 9.0 0.00 0.36 0.36 63 1012.0
20260905192400 85 93 6.0 9.0 0.00 0.36 0.36 63 1012.0
20260905191702 85 179 2.0 10.0 0.00 0.36 0.36 64 1011.9
20260905191428 85 104 4.0 12.0 0.00 0.36 0.36 64 1012.0
20260905190959 85 92 7.0 12.0 0.00 0.36 0.36 63 1012.0
20260905190428 85 96 5.0 7.0 0.00 0.36 0.36 65 1011.9
20260905190300 85 96 5.0 7.0 0.00 0.36 0.36 65 1011.9
20260905185606 85 102 2.0 8.0 0.00 0.36 0.36 64 1012.0
20260905185428 84 110 3.0 9.0 0.00 0.36 0.36 65 1012.0
20260905184900 84 105 4.0 9.0 0.00 0.36 0.36 65 1012.2
20260905184427 84 99 4.0 11.0 0.00 0.36 0.36 65 1012.2
20260905184200 84 99 4.0 11.0 0.00 0.36 0.36 65 1012.2
20260905183500 84 118 5.0 14.0 0.00 0.36 0.36 64 1012.4
20260905183427 84 118 5.0 14.0 0.00 0.36 0.36 64 1012.4
20260905182759 84 100 5.0 14.0 0.00 0.36 0.36 64 1012.4
20260905182427 84 102 4.0 11.0 0.00 0.36 0.36 65 1012.5
20260905182059 84 102 4.0 11.0 0.00 0.36 0.36 65 1012.5
20260905181427 84 95 7.0 13.0 0.00 0.36 0.36 66 1012.7
20260905181404 84 95 7.0 13.0 0.00 0.36 0.36 66 1012.7
20260905180701 84 164 3.0 9.0 0.00 0.36 0.36 67 1012.6
20260905180429 83 111 4.0 8.0 0.00 0.36 0.36 67 1012.7
20260905180002 83 144 3.0 10.0 0.00 0.36 0.36 67 1012.6
20260905175429 83 146 3.0 10.0 0.00 0.36 0.36 67 1012.7
20260905175306 83 146 3.0 10.0 0.00 0.36 0.36 67 1012.7
20260905174601 83 133 3.0 11.0 0.00 0.36 0.36 67 1012.7
20260905174429 82 105 3.0 11.0 0.00 0.36 0.36 68 1012.6
20260905173904 82 134 2.0 10.0 0.00 0.36 0.36 70 1012.7
20260905173428 82 94 4.0 10.0 0.00 0.36 0.36 71 1012.6
20260905173200 82 94 4.0 10.0 0.00 0.36 0.36 71 1012.6
20260905172500 81 145 4.0 12.0 0.00 0.36 0.36 71 1012.5
20260905172428 81 145 4.0 12.0 0.00 0.36 0.36 71 1012.5
20260905171759 81 137 5.0 12.0 0.00 0.36 0.36 70 1012.5
20260905171429 81 122 3.0 10.0 0.00 0.36 0.36 71 1012.5
20260905171103 81 122 3.0 10.0 0.00 0.36 0.36 71 1012.5
20260905170429 81 177 2.0 10.0 0.00 0.36 0.36 74 1012.4
20260905170400 81 177 2.0 10.0 0.00 0.36 0.36 74 1012.4
20260905165702 80 120 3.0 9.0 0.00 0.36 0.36 73 1012.4
20260905165428 80 137 3.0 9.0 0.00 0.36 0.36 73 1012.6
20260905165000 80 139 2.0 9.0 0.00 0.36 0.36 74 1012.6
20260905164429 79 128 3.0 11.0 0.00 0.36 0.36 75 1012.6
20260905164300 79 128 3.0 11.0 0.00 0.36 0.36 75 1012.6
20260905163600 79 119 3.0 11.0 0.00 0.36 0.36 75 1012.7
20260905163428 78 110 5.0 11.0 0.00 0.36 0.36 76 1012.8
20260905162902 78 114 4.0 11.0 0.00 0.36 0.36 77 1012.9
20260905162428 78 138 3.0 10.0 0.00 0.36 0.36 78 1012.9
20260905162200 78 138 3.0 10.0 0.00 0.36 0.36 78 1012.9
20260905161500 77 98 4.0 7.0 0.00 0.36 0.36 78 1012.8
20260905161428 77 98 4.0 7.0 0.00 0.36 0.36 78 1012.8
20260905160759 77 120 3.0 8.0 0.00 0.36 0.36 79 1012.7
20260905160427 77 117 3.0 8.0 0.00 0.36 0.36 80 1012.7
20260905160059 77 117 3.0 8.0 0.00 0.36 0.36 80 1012.7
20260905155427 76 179 3.0 8.0 0.00 0.36 0.36 82 1012.5
20260905155359 76 179 3.0 8.0 0.00 0.36 0.36 82 1012.5
20260905154659 76 129 3.0 7.0 0.00 0.36 0.36 82 1012.6
20260905154427 75 114 2.0 7.0 0.00 0.36 0.36 83 1012.8
20260905154000 74 101 3.0 8.0 0.00 0.36 0.36 84 1012.8
20260905153427 74 87 5.0 8.0 0.00 0.36 0.36 83 1012.6
20260905153258 74 87 5.0 8.0 0.00 0.36 0.36 83 1012.6
20260905152601 74 84 3.0 8.0 0.00 0.36 0.36 84 1012.8
20260905152429 74 91 4.0 8.0 0.00 0.36 0.36 84 1012.8
20260905151902 73 89 5.0 9.0 0.00 0.36 0.36 83 1012.8
20260905151429 73 93 5.0 9.0 0.00 0.36 0.36 83 1012.3
20260905151201 73 93 5.0 9.0 0.00 0.36 0.36 83 1012.3
20260905150501 73 91 4.0 8.0 0.00 0.36 0.36 83 1012.4
20260905150429 73 91 4.0 8.0 0.00 0.36 0.36 83 1012.4
20260905145800 73 94 4.0 8.0 0.00 0.36 0.36 83 1012.3
20260905145429 73 93 4.0 7.0 0.00 0.36 0.36 83 1012.4
20260905145100 73 93 4.0 7.0 0.00 0.36 0.36 83 1012.4
20260905144428 73 93 4.0 8.0 0.00 0.36 0.36 83 1012.6
20260905144400 73 93 4.0 8.0 0.00 0.36 0.36 83 1012.6
20260905143701 73 95 3.0 8.0 0.00 0.36 0.36 82 1012.6
20260905143428 73 76 2.0 7.0 0.00 0.36 0.36 82 1012.5
20260905143002 73 88 4.0 8.0 0.00 0.36 0.36 81 1012.3
20260905142428 73 91 3.0 9.0 0.00 0.36 0.36 82 1012.4
20260905142259 73 91 3.0 9.0 0.00 0.36 0.36 82 1012.4
20260905141603 73 111 3.0 9.0 0.00 0.36 0.36 81 1012.4
20260905141428 73 91 4.0 10.0 0.00 0.36 0.36 82 1012.4
20260905140900 72 115 4.0 11.0 0.00 0.36 0.36 83 1012.5
20260905140428 72 125 4.0 16.0 0.00 0.36 0.36 85 1012.4
20260905140201 72 125 4.0 16.0 0.00 0.36 0.36 85 1012.4
20260905135459 70 178 4.0 16.0 0.00 0.36 0.36 89 1011.5
20260905135428 70 178 4.0 16.0 0.00 0.36 0.36 89 1011.5
20260905134807 70 169 3.0 10.0 0.00 0.36 0.36 89 1012.2
20260905134428 70 157 2.0 9.0 0.00 0.36 0.36 91 1013.1
20260905134101 70 157 2.0 9.0 0.00 0.36 0.36 91 1013.1
20260905133428 70 56 1.0 5.0 0.00 0.36 0.36 90 1013.3
20260905133402 70 56 1.0 5.0 0.00 0.36 0.36 90 1013.3
20260905132703 70 126 1.0 12.0 0.00 0.36 0.36 90 1013.5
20260905132428 70 156 2.0 12.0 0.00 0.36 0.36 90 1013.7
20260905132000 70 145 3.0 9.0 0.00 0.36 0.36 90 1013.9
20260905131429 70 184 3.0 9.0 0.00 0.36 0.36 90 1014.2
20260905131301 70 184 3.0 9.0 0.00 0.36 0.36 90 1014.2
20260905130602 70 189 2.0 12.0 0.00 0.36 0.36 91 1014.3
20260905130429 69 160 4.0 12.0 0.00 0.36 0.36 92 1014.4
20260905125902 69 159 2.0 10.0 0.00 0.36 0.36 93 1014.3
20260905125429 69 175 2.0 7.0 0.00 0.36 0.36 94 1014.3
20260905125202 69 175 2.0 7.0 0.00 0.36 0.36 94 1014.3
20260905124502 69 159 2.0 6.0 0.00 0.36 0.36 95 1014.4
20260905124428 69 159 2.0 6.0 0.00 0.36 0.36 95 1014.4
20260905123800 69 173 1.0 5.0 0.00 0.36 0.36 95 1014.3
20260905123428 69 90 1.0 5.0 0.00 0.36 0.36 95 1014.2
20260905123100 69 90 1.0 5.0 0.00 0.36 0.36 95 1014.2
20260905122428 69 96 2.0 7.0 0.00 0.36 0.36 95 1014.1
20260905122401 69 96 2.0 7.0 0.00 0.36 0.36 95 1014.1
20260905121700 70 99 3.0 7.0 0.00 0.36 0.36 94 1014.3
20260905121428 70 132 1.0 11.0 0.00 0.36 0.36 95 1014.4
20260905121001 69 104 4.0 11.0 0.00 0.36 0.36 95 1014.4
20260905120428 69 102 5.0 10.0 0.00 0.36 0.36 98 1014.1
20260905115559 69 123 1.0 4.0 0.22 0.35 0.35 100 1015.0
20260905115428 69 174 1.0 4.0 0.22 0.35 0.35 100 1015.3
20260905114859 69 162 1.0 4.0 0.21 0.34 0.34 100 1015.3
20260905114427 70 168 1.0 5.0 0.19 0.32 0.32 100 1015.3
20260905114203 70 168 1.0 5.0 0.19 0.32 0.32 100 1015.3
20260905113458 71 181 2.0 4.0 0.14 0.27 0.27 100 1015.5
20260905113427 71 181 2.0 4.0 0.14 0.27 0.27 100 1015.5
20260905112759 71 235 0.0 6.0 0.12 0.25 0.25 100 1015.7
20260905112427 71 244 2.0 6.0 0.09 0.22 0.22 100 1015.7
20260905112101 71 244 2.0 6.0 0.09 0.22 0.22 100 1015.7
20260905111429 72 171 1.0 4.0 0.04 0.17 0.17 100 1015.7
20260905111402 72 171 1.0 4.0 0.04 0.17 0.17 100 1015.7
20260905110429 72 228 3.0 7.0 0.13 0.13 0.13 100 1015.7
20260905110004 73 168 1.0 7.0 0.10 0.10 0.10 100 1015.4
20260905105428 73 207 2.0 11.0 0.09 0.09 0.09 100 1015.2
20260905105306 73 207 2.0 11.0 0.09 0.09 0.09 100 1015.2
20260905104603 73 228 4.0 11.0 0.08 0.08 0.08 100 1014.8
20260905104427 73 195 2.0 10.0 0.07 0.07 0.07 100 1014.5
20260905103858 73 204 4.0 17.0 0.06 0.06 0.06 100 1014.3
20260905103427 73 223 6.0 17.0 0.06 0.06 0.06 100 1014.0
20260905102503 72 204 2.0 5.0 0.02 0.02 0.02 100 1013.8
20260905102429 72 204 2.0 5.0 0.02 0.02 0.02 100 1013.8
20260905101801 72 183 1.0 4.0 0.00 0.00 0.00 100 1013.7
20260905101429 72 132 1.0 4.0 0.00 0.00 0.00 100 1013.7
20260905101100 72 132 1.0 4.0 0.00 0.00 0.00 100 1013.7
20260905100428 72 99 2.0 6.0 0.00 0.00 0.00 100 1013.8
20260905100400 72 99 2.0 6.0 0.00 0.00 0.00 100 1013.8
20260905095706 72 99 1.0 8.0 0.00 0.00 0.00 100 1013.5
20260905095428 72 100 3.0 8.0 0.00 0.00 0.00 100 1013.2
20260905095001 73 97 4.0 6.0 0.00 0.00 0.00 100 1012.7
20260905094428 73 170 1.0 8.0 0.00 0.00 0.00 100 1012.1
20260905094302 73 170 1.0 8.0 0.00 0.00 0.00 100 1012.1
20260905093559 73 107 3.0 8.0 0.00 0.00 0.00 100 1011.8
20260905093428 73 110 3.0 8.0 0.00 0.00 0.00 100 1011.8
20260905092859 73 146 2.0 7.0 0.00 0.00 0.00 100 1012.4
20260905092428 73 100 4.0 9.0 0.00 0.00 0.00 100 1012.8
20260905092159 73 100 4.0 9.0 0.00 0.00 0.00 100 1012.8
20260905091500 73 104 4.0 7.0 0.00 0.00 0.00 100 1012.8
20260905091427 73 104 4.0 7.0 0.00 0.00 0.00 100 1012.8
20260905090801 73 106 3.0 7.0 0.00 0.00 0.00 100 1013.0
20260905090427 73 89 4.0 7.0 0.00 0.00 0.00 100 1013.0
20260905085428 74 104 4.0 6.0 0.00 0.00 0.00 100 1012.9
20260905085401 74 104 4.0 6.0 0.00 0.00 0.00 100 1012.9
20260905084703 74 103 4.0 6.0 0.00 0.00 0.00 100 1012.9
20260905084428 74 103 1.0 4.0 0.00 0.00 0.00 100 1013.1
20260905084003 73 103 3.0 4.0 0.00 0.00 0.00 100 1013.2
20260905083428 73 103 2.0 6.0 0.00 0.00 0.00 100 1013.3
20260905083302 73 103 2.0 6.0 0.00 0.00 0.00 100 1013.3
20260905082600 73 103 2.0 6.0 0.00 0.00 0.00 100 1012.8
20260905082428 73 103 2.0 5.0 0.00 0.00 0.00 100 1012.8
20260905081859 73 104 0.0 1.0 0.00 0.00 0.00 100 1012.8
20260905081427 73 103 0.0 3.0 0.00 0.00 0.00 100 1012.9
20260905081159 73 103 0.0 3.0 0.00 0.00 0.00 100 1012.9
20260905080503 73 103 2.0 7.0 0.00 0.00 0.00 100 1012.5
20260905080427 73 103 2.0 7.0 0.00 0.00 0.00 100 1012.5
20260905075800 73 96 4.0 9.0 0.00 0.00 0.00 100 1012.2
20260905075428 73 96 5.0 9.0 0.00 0.00 0.00 100 1012.2
20260905075100 73 96 5.0 9.0 0.00 0.00 0.00 100 1012.2
20260905074428 73 92 4.0 8.0 0.00 0.00 0.00 100 1012.7
20260905074401 73 92 4.0 8.0 0.00 0.00 0.00 100 1012.7
20260905073659 72 74 3.0 8.0 0.00 0.00 0.00 100 1012.9
20260905073428 72 102 4.0 8.0 0.00 0.00 0.00 100 1012.7
20260905073000 72 93 4.0 7.0 0.00 0.00 0.00 100 1012.8
20260905072428 72 90 4.0 7.0 0.00 0.00 0.00 100 1012.7
20260905072308 72 90 4.0 7.0 0.00 0.00 0.00 100 1012.7
20260905071427 71 99 4.0 7.0 0.00 0.00 0.00 100 1012.9